Orbital Elements at Epoch 2459200.5 (2020-Dec-17.0) TDB
Reference: JPL 19 (heliocentric ecliptic J2000)
Element | Value | Uncertainty (1-sigma) | Units |
e | .1539793278838703 | 4.1104e-08 | |
a | 2.788187463653672 | 2.4863e-08 | au |
q | 2.358864231986047 | 1.1854e-07 | au |
i | 14.72823590573496 | 4.6761e-06 | deg |
node | 62.92918302062927 | 1.9264e-05 | deg |
peri | 193.7508116946484 | 2.5842e-05 | deg |
M | 296.8060924230514 | 2.0393e-05 | deg |
tp | 2459499.006705977170 (2021-Oct-11.50670598) | 9.8597e-05 | TDB |
period | 1700.518582759405 4.66 | 2.2746e-05 6.228e-08 | d yr |
n | .2117001270376203 | 2.8316e-09 | deg/d |
Q | 3.217510695321298 | 2.8691e-08 | au |
|
| | Orbit Determination Parameters
Additional Information
|